Regional Weather Roundup
Issued by NWS Newport/Morehead, NC

Current Version | Previous Version | Graphics & Text | Print | Product List | Glossary On
Versions: 1 2 3 4 5 6 7 8 9 10 11 12 13 14 15 16 17 18 19 20 21 22 23 24 25 26 27 28 29 30 31 32 33 34 35 36 37 38 39 40 41 42 43 44 45 46 47 48 49 50
000 ASUS42 KMHX 040013 RWRMHX WEATHER ROUNDUP FOR EASTERN NORTH CAROLINA NATIONAL WEATHER SERVICE NEWPORT/MOREHEAD CITY NC 800 PM EDT MON AUG 03 2015 NOTE: "FAIR" INDICATES FEW OR NO CLOUDS BELOW 12,000 FEET WITH NO SIGNIFICANT WEATHER AND/OR OBSTRUCTIONS TO VISIBILITY NCZ015>017-031-032-045>047-102-103-040100- NORTH COAST CITY SKY/WX TMP DP RH WIND PRES REMARKS EDENTON N/A 82 73 73 S15 29.91R ELIZABETH CITY MOCLDY 80 75 84 S9 29.91R KITTY HAWK MOCLDY 79 71 77 SW7 29.92R MANTEO MOCLDY 78 72 82 SW14 29.94R $$ NCZ045>047-081-094-103-104-040100- CENTRAL COAST CITY SKY/WX TMP DP RH WIND PRES REMARKS FRISCO MOCLDY 77 72 84 S12G22 29.97R SWANQUARTER N/A 79 N/A N/A SW15G21 29.91S $$ NCZ095-097-098-100-101-040100- SOUTHERN COAST CITY SKY/WX TMP DP RH WIND PRES REMARKS BEAUFORT MOCLDY 78 75 90 S10 29.96R CEDAR ISLAND N/A 77 N/A N/A S9 30.00R JACKSONVILLE MOCLDY 78 73 84 S3 29.95R PINEY ISLAND PTCLDY N/A N/A N/A S8 29.95R WILMINGTON MOCLDY 80 75 84 SE3 29.94S $$ NCZ011>013-027>030-043-044-078>080-089-090>093-098-040100- COASTAL PLAIN CITY SKY/WX TMP DP RH WIND PRES REMARKS AHOSKIE CLEAR 83 73 70 S8 29.89R CLINTON CLEAR 83 73 72 S7 29.93S ELIZABETHTOWN PTCLDY 81 73 76 S6 29.94S GOLDSBORO CLEAR 84 73 69 S6 29.90R GREENVILLE CLEAR 82 73 74 S10 29.94R HAVELOCK MOCLDY 78 73 84 S7 29.96R KENANSVILLE PTCLDY N/A N/A N/A S3 29.95R KINSTON CLEAR 82 72 69 S7 29.94R NEW BERN PTCLDY 79 73 82 S7 29.96R HAZE RICHLANDS PTCLDY 79 70 73 S6 29.95R ROCKY MOUNT CLEAR 86 71 60 S10 29.90R WASHINGTON CLEAR 80 71 73 S7 29.93R WHITEVILLE MOCLDY 78 76 92 CALM 29.93S $$ AMZ130-135-150-152-154-156-158-170-250-252-270-ANZ085-086-088-633-658-670-040100- MARINE OBSERVATIONS STATION/POSITION TIME TEMP WIND PRES WAVE SWELL AIR SEA DIR/SP/G HT/PER HT/PER (UTC) (F) (DEG/KT/KT) (MB) (FT/S) (FT/S) CHESAPEAKE LIGHT 0000 80 190/ 20/ 21 1012.4 64 E VA BEACH 2350 79 81 210/ 19/ 25 1012.8 5/ 6 2/11 DUCK 2300 80 66 200/ 19/ 24 1011.7 2 E DUCK 2311 70 N/A 2/11 2/11 OREGON INLET 2300 78 81 200/ 20/ 23 1013.4 13E OREGON INLT 0000 80 N/A 4/ 5 HATTERAS CG 2300 78 80 200/ 11/ 16 1013.8 DIAMOND BUOY 2350 79 84 180/ 17/ 21 1014.7 4/ 6 2/ 7 CAPE LOOKOUT 0000 78 180/ 14/ 17 1014.2 BEAUFORT LAB 2300 79 80 190/ 14/ 16 1013.1 30 SE NEW RVR IN NOT AVBL 27 SE WRIGHTSVLE 2300 78 82 210/ 10/ 14 N/A 5 SE WRIGHTSVLE 2308 81 83 200/ 14/ 16 1014.1 225 S CAPE HAT 2350 83 81 200/ 14/ 16 1017.6 5/ 6 3/ 7 41 SE CHARLESTON 2350 81 83 150/ 16/ 21 1012.1 5/ 6 2/11 $$

USA.gov is the U.S. government's official web portal to all federal, state and local government web resources and services.